START_TIME,STEP,MOV.,M34,t_acc.,L5,t_acc.,L18,t_acc.,L14,t_acc.
1979-03-03 15:00:14.190 ,1,1,3.,12.0,7.,12.0,0.,12.0,0.,12.0
1979-03-03 15:00:26.190 ,1,1,8.,12.0,9.,12.0,0.,12.0,0.,12.0
1979-03-03 15:00:38.190 ,2,1,0.,12.0,4.,12.0,0.,12.0,1.,12.0
1979-03-03 15:00:50.190 ,2,1,3.,12.0,7.,12.0,0.,12.0,1.,12.0
1979-03-03 15:01:02.190 ,3,1,7.,12.0,15.,12.0,0.,12.0,0.,12.0
1979-03-03 15:01:14.190 ,3,1,11.,12.0,8.,12.0,0.,12.0,1.,12.0
1979-03-03 15:01:26.190 ,4,1,5.,12.0,15.,12.0,0.,12.0,0.,12.0
1979-03-03 15:01:38.190 ,4,1,7.,12.0,17.,12.0,0.,12.0,0.,12.0
1979-03-03 15:01:50.190 ,5,1,11.,12.0,6.,12.0,0.,12.0,2.,12.0
1979-03-03 15:02:02.190 ,5,1,10.,12.0,14.,12.0,0.,12.0,0.,12.0
1979-03-03 15:02:14.190 ,6,1,9.,12.0,17.,12.0,0.,12.0,0.,12.0
1979-03-03 15:02:26.190 ,6,1,14.,12.0,11.,12.0,0.,12.0,1.,12.0
1979-03-03 15:02:38.190 ,7,1,15.,12.0,17.,12.0,0.,12.0,0.,12.0
1979-03-03 15:02:50.190 ,7,1,5.,12.0,11.,12.0,0.,12.0,1.,12.0
1979-03-03 15:03:02.190 ,7,1,0.,12.0,4.,12.0,0.,12.0,0.,12.0
1979-03-03 15:03:14.190 ,7,1,0.,12.0,13.,12.0,0.,12.0,0.,12.0
1979-03-03 15:03:26.190 ,6,1,0.,12.0,6.,12.0,0.,12.0,1.,12.0
1979-03-03 15:03:38.190 ,6,1,10.,12.0,11.,12.0,0.,12.0,1.,12.0
1979-03-03 15:03:50.190 ,5,1,16.,12.0,10.,12.0,0.,12.0,1.,12.0
1979-03-03 15:04:02.190 ,5,1,22.,12.0,10.,12.0,0.,12.0,0.,12.0
1979-03-03 15:04:14.190 ,4,1,28.,12.0,14.,12.0,0.,12.0,0.,12.0
1979-03-03 15:04:26.190 ,4,1,10.,12.0,11.,12.0,0.,12.0,0.,12.0
1979-03-03 15:04:38.190 ,3,1,17.,12.0,7.,12.0,0.,12.0,1.,12.0
1979-03-03 15:04:50.190 ,3,1,7.,12.0,12.,12.0,0.,12.0,0.,12.0
1979-03-03 15:05:02.190 ,2,1,1.,12.0,11.,12.0,0.,12.0,0.,12.0
1979-03-03 15:05:14.190 ,2,1,6.,12.0,7.,12.0,0.,12.0,0.,12.0
1979-03-03 15:05:26.190 ,1,1,5.,12.0,4.,12.0,0.,12.0,0.,12.0
1979-03-03 15:05:38.190 ,1,1,1.,12.0,8.,12.0,0.,12.0,0.,12.0
1979-03-03 15:05:50.190 ,0,1,1.,12.0,6.,12.0,0.,12.0,1.,12.0
1979-03-03 15:06:02.190 ,0,1,1.,12.0,10.,12.0,0.,12.0,0.,12.0
1979-03-03 15:06:14.190 ,0,1,6.,12.0,8.,12.0,0.,12.0,0.,12.0
1979-03-03 15:06:26.190 ,0,1,7.,12.0,8.,12.0,0.,12.0,0.,12.0
1979-03-03 15:06:38.190 ,1,1,11.,12.0,9.,12.0,0.,12.0,0.,12.0
1979-03-03 15:06:50.190 ,1,1,6.,12.0,7.,12.0,0.,12.0,0.,12.0
1979-03-03 15:07:02.190 ,2,1,2.,12.0,3.,12.0,0.,12.0,0.,12.0
1979-03-03 15:07:14.190 ,2,1,3.,12.0,9.,12.0,0.,12.0,0.,12.0
1979-03-03 15:07:26.190 ,3,1,4.,12.0,7.,12.0,0.,12.0,0.,12.0
1979-03-03 15:07:38.190 ,3,1,7.,12.0,11.,12.0,0.,12.0,0.,12.0
1979-03-03 15:07:50.190 ,4,1,5.,12.0,7.,12.0,0.,12.0,2.,12.0
1979-03-03 15:08:02.190 ,4,1,8.,12.0,8.,12.0,0.,12.0,0.,12.0
1979-03-03 15:08:14.190 ,5,1,10.,12.0,9.,12.0,0.,12.0,1.,12.0
1979-03-03 15:08:26.190 ,5,1,14.,12.0,19.,12.0,0.,12.0,0.,12.0
1979-03-03 15:08:38.190 ,6,1,21.,12.0,12.,12.0,0.,12.0,0.,12.0
1979-03-03 15:08:50.190 ,6,1,18.,12.0,10.,12.0,0.,12.0,1.,12.0
1979-03-03 15:09:02.190 ,7,1,11.,12.0,12.,12.0,0.,12.0,0.,12.0
1979-03-03 15:09:14.190 ,7,1,6.,12.0,3.,12.0,0.,12.0,0.,12.0
1979-03-03 15:09:26.190 ,7,1,0.,12.0,9.,12.0,0.,12.0,2.,12.0
1979-03-03 15:09:38.190 ,7,1,0.,12.0,4.,12.0,0.,12.0,0.,12.0
1979-03-03 15:09:50.190 ,6,1,0.,12.0,11.,12.0,0.,12.0,0.,12.0
1979-03-03 15:10:02.190 ,6,1,9.,12.0,7.,12.0,0.,12.0,0.,12.0
1979-03-03 15:10:14.190 ,5,1,16.,12.0,11.,12.0,0.,12.0,0.,12.0
1979-03-03 15:10:26.190 ,5,1,21.,12.0,8.,12.0,0.,12.0,0.,12.0
1979-03-03 15:10:38.190 ,4,1,18.,12.0,17.,12.0,0.,12.0,0.,12.0
1979-03-03 15:10:50.190 ,4,1,6.,12.0,13.,12.0,0.,12.0,0.,12.0
1979-03-03 15:11:02.190 ,3,1,7.,12.0,10.,12.0,0.,12.0,0.,12.0
1979-03-03 15:11:14.190 ,3,1,8.,12.0,6.,12.0,0.,12.0,0.,12.0
1979-03-03 15:11:26.190 ,2,1,5.,12.0,8.,12.0,0.,12.0,1.,12.0
1979-03-03 15:11:38.190 ,2,1,5.,12.0,15.,12.0,0.,12.0,1.,12.0
1979-03-03 15:11:50.190 ,1,1,3.,12.0,7.,12.0,0.,12.0,0.,12.0
1979-03-03 15:12:02.190 ,1,1,2.,12.0,4.,12.0,0.,12.0,0.,12.0
1979-03-03 15:12:14.190 ,0,1,1.,12.0,4.,12.0,0.,12.0,0.,12.0
1979-03-03 15:12:26.190 ,0,1,10.,12.0,8.,12.0,0.,12.0,0.,12.0
1979-03-03 15:12:38.190 ,0,0,9.,12.0,12.,12.0,0.,12.0,0.,12.0
1979-03-03 15:12:50.190 ,0,0,,0,,0,,0,,0
1979-03-03 15:13:02.190 ,0,0,,0,,0,,0,,0
1979-03-03 15:13:14.190 ,0,0,,0,,0,,0,,0
1979-03-03 15:17:24.390 ,0,0,,0,,0,,0,,0
1979-03-03 15:17:36.390 ,0,0,,0,,0,,0,,0
1979-03-03 15:17:26.190 ,0,0,12.,12.0,9.,12.0,0.,12.0,0.,12.0
1979-03-03 15:17:38.190 ,0,0,9.,12.0,6.,12.0,0.,12.0,0.,12.0
1979-03-03 15:17:50.190 ,2,1,6.,12.0,3.,12.0,0.,12.0,1.,12.0
1979-03-03 15:18:02.190 ,2,1,6.,12.0,10.,12.0,0.,12.0,0.,12.0
1979-03-03 15:18:14.190 ,1,1,0.,12.0,4.,12.0,0.,12.0,0.,12.0
1979-03-03 15:18:26.190 ,1,1,3.,12.0,4.,12.0,0.,12.0,0.,12.0
1979-03-03 15:18:38.190 ,0,1,7.,12.0,6.,12.0,0.,12.0,0.,12.0
1979-03-03 15:18:50.190 ,0,1,5.,12.0,13.,12.0,0.,12.0,0.,12.0
1979-03-03 15:19:02.190 ,0,1,6.,12.0,7.,12.0,0.,12.0,0.,12.0
1979-03-03 15:19:14.190 ,0,1,5.,12.0,5.,12.0,0.,12.0,1.,12.0
1979-03-03 15:19:26.190 ,1,1,3.,12.0,7.,12.0,0.,12.0,0.,12.0
1979-03-03 15:19:38.190 ,1,1,11.,12.0,4.,12.0,0.,12.0,1.,12.0
1979-03-03 15:19:50.190 ,2,1,8.,12.0,7.,12.0,0.,12.0,0.,12.0
1979-03-03 15:20:02.190 ,2,1,5.,12.0,12.,12.0,0.,12.0,1.,12.0
1979-03-03 15:20:14.190 ,3,1,5.,12.0,7.,12.0,0.,12.0,0.,12.0
1979-03-03 15:20:26.190 ,3,1,3.,12.0,6.,12.0,0.,12.0,0.,12.0
1979-03-03 15:20:38.190 ,4,1,5.,12.0,6.,12.0,0.,12.0,0.,12.0
1979-03-03 15:20:50.190 ,4,1,14.,12.0,10.,12.0,0.,12.0,0.,12.0
1979-03-03 15:21:02.190 ,5,1,10.,12.0,9.,12.0,0.,12.0,0.,12.0
1979-03-03 15:21:14.190 ,5,1,20.,12.0,11.,12.0,0.,12.0,0.,12.0
1979-03-03 15:21:26.190 ,6,1,15.,12.0,11.,12.0,0.,12.0,0.,12.0
1979-03-03 15:21:38.190 ,6,1,17.,12.0,17.,12.0,0.,12.0,1.,12.0
1979-03-03 15:21:50.190 ,7,1,18.,12.0,14.,12.0,0.,12.0,0.,12.0
1979-03-03 15:22:02.190 ,7,1,1.,12.0,8.,12.0,0.,12.0,0.,12.0
1979-03-03 15:22:14.190 ,7,1,0.,12.0,5.,12.0,0.,12.0,0.,12.0
1979-03-03 15:22:26.190 ,7,1,0.,12.0,5.,12.0,0.,12.0,0.,12.0
1979-03-03 15:22:38.190 ,6,1,0.,12.0,13.,12.0,0.,12.0,0.,12.0
1979-03-03 15:22:50.190 ,6,1,10.,12.0,13.,12.0,0.,12.0,0.,12.0
1979-03-03 15:23:02.190 ,0,0,,0,,0,,0,,0
1979-03-03 15:23:14.190 ,0,0,23.,12.0,7.,12.0,0.,12.0,0.,12.0
1979-03-03 15:23:26.190 ,4,1,14.,12.0,12.,12.0,0.,12.0,0.,12.0
1979-03-03 15:23:38.190 ,4,1,12.,12.0,7.,12.0,0.,12.0,1.,12.0
1979-03-03 15:23:50.190 ,3,1,5.,12.0,5.,12.0,0.,12.0,0.,12.0
1979-03-03 15:24:02.190 ,3,1,6.,12.0,6.,12.0,0.,12.0,0.,12.0
1979-03-03 15:24:14.190 ,2,1,5.,12.0,9.,12.0,0.,12.0,0.,12.0
1979-03-03 15:24:26.190 ,2,1,7.,12.0,7.,12.0,0.,12.0,0.,12.0
1979-03-03 15:24:38.190 ,1,1,5.,12.0,8.,12.0,0.,12.0,0.,12.0
1979-03-03 15:24:50.190 ,1,1,5.,12.0,5.,12.0,0.,12.0,0.,12.0
1979-03-03 15:25:02.190 ,0,1,6.,12.0,7.,12.0,0.,12.0,0.,12.0
1979-03-03 15:25:14.190 ,0,1,6.,12.0,5.,12.0,0.,12.0,0.,12.0
1979-03-03 15:25:26.190 ,0,1,9.,12.0,5.,12.0,0.,12.0,0.,12.0
1979-03-03 15:25:38.190 ,0,1,6.,12.0,6.,12.0,0.,12.0,0.,12.0
1979-03-03 15:25:50.190 ,1,1,7.,12.0,9.,12.0,0.,12.0,1.,12.0
1979-03-03 15:26:02.190 ,1,1,4.,12.0,6.,12.0,0.,12.0,1.,12.0
1979-03-03 15:26:14.190 ,2,1,3.,12.0,7.,12.0,0.,12.0,0.,12.0
1979-03-03 15:26:26.190 ,2,1,5.,12.0,8.,12.0,0.,12.0,0.,12.0
1979-03-03 15:26:38.190 ,3,1,7.,12.0,6.,12.0,0.,12.0,0.,12.0
1979-03-03 15:26:50.190 ,3,1,5.,12.0,5.,12.0,0.,12.0,0.,12.0
1979-03-03 15:27:02.190 ,4,1,4.,12.0,6.,12.0,0.,12.0,0.,12.0
1979-03-03 15:27:14.190 ,4,1,7.,12.0,4.,12.0,0.,12.0,1.,12.0
1979-03-03 15:27:26.190 ,5,1,5.,12.0,8.,12.0,0.,12.0,1.,12.0
1979-03-03 15:27:38.190 ,5,1,9.,12.0,10.,12.0,0.,12.0,0.,12.0
1979-03-03 15:27:50.190 ,6,1,18.,12.0,10.,12.0,0.,12.0,1.,12.0
1979-03-03 15:28:02.190 ,6,1,13.,12.0,4.,12.0,0.,12.0,0.,12.0
1979-03-03 15:28:14.190 ,7,1,10.,12.0,10.,12.0,0.,12.0,0.,12.0
1979-03-03 15:28:26.190 ,7,1,2.,12.0,6.,12.0,0.,12.0,1.,12.0
1979-03-03 15:28:38.190 ,7,1,0.,12.0,12.,12.0,0.,12.0,1.,12.0
1979-03-03 15:28:50.190 ,7,1,0.,12.0,9.,12.0,0.,12.0,0.,12.0
1979-03-03 15:29:02.190 ,6,1,0.,12.0,10.,12.0,0.,12.0,0.,12.0
1979-03-03 15:29:14.190 ,6,1,12.,12.0,9.,12.0,0.,12.0,0.,12.0
1979-03-03 15:29:26.190 ,5,1,15.,12.0,8.,12.0,0.,12.0,0.,12.0
1979-03-03 15:29:38.190 ,5,1,11.,12.0,11.,12.0,0.,12.0,0.,12.0
1979-03-03 15:29:50.190 ,4,1,14.,12.0,9.,12.0,0.,12.0,1.,12.0
1979-03-03 15:30:02.190 ,4,1,12.,12.0,11.,12.0,0.,12.0,0.,12.0
1979-03-03 15:30:14.190 ,3,1,5.,12.0,9.,12.0,0.,12.0,0.,12.0
1979-03-03 15:30:26.190 ,3,1,3.,12.0,10.,12.0,0.,12.0,0.,12.0
1979-03-03 15:30:38.190 ,2,1,6.,12.0,7.,12.0,0.,12.0,0.,12.0
1979-03-03 15:30:50.190 ,2,1,2.,12.0,7.,12.0,0.,12.0,0.,12.0
1979-03-03 15:31:02.190 ,1,1,0.,12.0,9.,12.0,0.,12.0,1.,12.0
1979-03-03 15:31:14.190 ,1,1,4.,12.0,5.,12.0,0.,12.0,0.,12.0
1979-03-03 15:31:26.190 ,0,1,6.,12.0,5.,12.0,0.,12.0,0.,12.0
1979-03-03 15:31:38.190 ,0,1,3.,12.0,9.,12.0,0.,12.0,0.,12.0
1979-03-03 15:31:50.190 ,0,1,5.,12.0,4.,12.0,0.,12.0,0.,12.0
1979-03-03 15:32:02.190 ,0,1,8.,12.0,2.,12.0,0.,12.0,0.,12.0
1979-03-03 15:32:14.190 ,1,1,7.,12.0,4.,12.0,0.,12.0,0.,12.0
1979-03-03 15:32:26.190 ,1,1,2.,12.0,4.,12.0,0.,12.0,0.,12.0
1979-03-03 15:32:38.190 ,2,1,1.,12.0,6.,12.0,0.,12.0,0.,12.0
1979-03-03 15:32:50.190 ,2,1,3.,12.0,10.,12.0,0.,12.0,0.,12.0
1979-03-03 15:33:02.190 ,3,1,8.,12.0,5.,12.0,0.,12.0,0.,12.0
1979-03-03 15:33:14.190 ,3,1,5.,12.0,11.,12.0,0.,12.0,1.,12.0
1979-03-03 15:33:26.190 ,4,1,7.,12.0,8.,12.0,0.,12.0,0.,12.0
1979-03-03 15:33:38.190 ,4,1,11.,12.0,18.,12.0,0.,12.0,0.,12.0
1979-03-03 15:33:50.190 ,5,1,4.,12.0,5.,12.0,0.,12.0,0.,12.0
1979-03-03 15:34:02.190 ,5,1,10.,12.0,11.,12.0,0.,12.0,0.,12.0
1979-03-03 15:34:14.190 ,6,1,7.,12.0,17.,12.0,0.,12.0,1.,12.0
1979-03-03 15:34:26.190 ,6,1,13.,12.0,10.,12.0,0.,12.0,2.,12.0
1979-03-03 15:34:38.190 ,7,1,10.,12.0,11.,12.0,0.,12.0,0.,12.0
1979-03-03 15:34:50.190 ,7,1,4.,12.0,12.,12.0,0.,12.0,1.,12.0
1979-03-03 15:35:02.190 ,7,1,0.,12.0,14.,12.0,0.,12.0,1.,12.0
1979-03-03 15:35:14.190 ,7,1,0.,12.0,4.,12.0,0.,12.0,0.,12.0
1979-03-03 15:35:26.190 ,6,1,0.,12.0,11.,12.0,0.,12.0,0.,12.0
1979-03-03 15:35:38.190 ,6,1,8.,12.0,9.,12.0,0.,12.0,0.,12.0
1979-03-03 15:35:50.190 ,5,1,6.,12.0,10.,12.0,0.,12.0,0.,12.0
1979-03-03 15:36:02.190 ,5,1,11.,12.0,11.,12.0,0.,12.0,0.,12.0
1979-03-03 15:36:14.190 ,4,1,10.,12.0,8.,12.0,0.,12.0,0.,12.0
1979-03-03 15:36:26.190 ,4,1,7.,12.0,8.,12.0,0.,12.0,1.,12.0
1979-03-03 15:36:38.190 ,3,1,11.,12.0,13.,12.0,0.,12.0,0.,12.0
1979-03-03 15:36:50.190 ,3,1,6.,12.0,6.,12.0,0.,12.0,0.,12.0
1979-03-03 15:37:02.190 ,2,1,10.,12.0,7.,12.0,0.,12.0,0.,12.0
1979-03-03 15:37:14.190 ,2,1,6.,12.0,5.,12.0,0.,12.0,0.,12.0
1979-03-03 15:37:26.190 ,1,1,8.,12.0,4.,12.0,0.,12.0,0.,12.0
1979-03-03 15:37:38.190 ,1,1,4.,12.0,8.,12.0,0.,12.0,1.,12.0
1979-03-03 15:37:50.190 ,0,1,8.,12.0,6.,12.0,0.,12.0,0.,12.0
1979-03-03 15:38:02.190 ,0,1,5.,12.0,6.,12.0,0.,12.0,2.,12.0
1979-03-03 15:38:14.190 ,0,1,6.,12.0,2.,12.0,0.,12.0,1.,12.0
1979-03-03 15:38:26.190 ,0,1,5.,12.0,3.,12.0,0.,12.0,0.,12.0
1979-03-03 15:38:38.190 ,1,1,2.,12.0,5.,12.0,0.,12.0,0.,12.0
1979-03-03 15:38:50.190 ,1,1,3.,12.0,4.,12.0,0.,12.0,0.,12.0
1979-03-03 15:39:02.190 ,2,1,4.,12.0,5.,12.0,0.,12.0,0.,12.0
1979-03-03 15:39:14.190 ,2,1,3.,12.0,7.,12.0,0.,12.0,0.,12.0
1979-03-03 15:39:26.190 ,3,1,6.,12.0,8.,12.0,0.,12.0,0.,12.0
1979-03-03 15:39:38.190 ,3,1,7.,12.0,7.,12.0,0.,12.0,0.,12.0
1979-03-03 15:39:50.190 ,4,1,3.,12.0,9.,12.0,0.,12.0,0.,12.0
1979-03-03 15:40:02.190 ,4,1,10.,12.0,10.,12.0,0.,12.0,1.,12.0
1979-03-03 15:40:14.190 ,5,1,4.,12.0,2.,12.0,0.,12.0,0.,12.0
1979-03-03 15:40:26.190 ,5,1,12.,12.0,7.,12.0,0.,12.0,0.,12.0
1979-03-03 15:40:38.190 ,6,1,11.,12.0,7.,12.0,0.,12.0,0.,12.0
1979-03-03 15:40:50.190 ,6,1,13.,12.0,14.,12.0,0.,12.0,0.,12.0
1979-03-03 15:41:02.190 ,7,1,11.,12.0,8.,12.0,0.,12.0,0.,12.0
1979-03-03 15:41:14.190 ,7,1,3.,12.0,15.,12.0,0.,12.0,1.,12.0
1979-03-03 15:41:26.190 ,7,1,0.,12.0,7.,12.0,0.,12.0,0.,12.0
1979-03-03 15:41:38.190 ,7,1,0.,12.0,14.,12.0,0.,12.0,0.,12.0
1979-03-03 15:41:50.190 ,6,1,0.,12.0,8.,12.0,0.,12.0,0.,12.0
1979-03-03 15:42:02.190 ,6,1,8.,12.0,15.,12.0,0.,12.0,0.,12.0
1979-03-03 15:42:14.190 ,5,1,17.,12.0,13.,12.0,0.,12.0,0.,12.0
1979-03-03 15:42:26.190 ,5,1,13.,12.0,8.,12.0,0.,12.0,0.,12.0
1979-03-03 15:42:38.190 ,4,1,11.,12.0,16.,12.0,0.,12.0,0.,12.0
1979-03-03 15:42:50.190 ,4,1,11.,12.0,7.,12.0,0.,12.0,0.,12.0
1979-03-03 15:43:02.190 ,3,1,14.,12.0,7.,12.0,0.,12.0,0.,12.0
1979-03-03 15:43:14.190 ,3,1,2.,12.0,10.,12.0,0.,12.0,0.,12.0
1979-03-03 15:43:26.190 ,2,1,8.,12.0,11.,12.0,0.,12.0,0.,12.0
1979-03-03 15:43:38.190 ,2,1,8.,12.0,7.,12.0,0.,12.0,1.,12.0
1979-03-03 15:43:50.190 ,1,1,3.,12.0,9.,12.0,0.,12.0,0.,12.0
1979-03-03 15:44:02.190 ,1,1,2.,12.0,13.,12.0,0.,12.0,1.,12.0
1979-03-03 15:44:14.190 ,0,1,2.,12.0,7.,12.0,0.,12.0,0.,12.0
1979-03-03 15:44:26.190 ,0,1,7.,12.0,6.,12.0,0.,12.0,1.,12.0
1979-03-03 15:44:38.190 ,0,1,6.,12.0,14.,12.0,0.,12.0,0.,12.0
1979-03-03 15:44:50.190 ,0,1,9.,12.0,15.,12.0,0.,12.0,0.,12.0
1979-03-03 15:45:02.190 ,1,1,7.,12.0,12.,12.0,0.,12.0,0.,12.0
1979-03-03 15:45:14.190 ,1,1,4.,12.0,14.,12.0,0.,12.0,0.,12.0
1979-03-03 15:45:26.190 ,2,1,6.,12.0,14.,12.0,0.,12.0,1.,12.0
1979-03-03 15:45:38.190 ,2,1,2.,12.0,10.,12.0,0.,12.0,0.,12.0
1979-03-03 15:45:50.190 ,3,1,3.,12.0,4.,12.0,0.,12.0,0.,12.0
1979-03-03 15:46:02.190 ,3,1,4.,12.0,4.,12.0,0.,12.0,0.,12.0
1979-03-03 15:46:14.190 ,4,1,6.,12.0,4.,12.0,0.,12.0,0.,12.0
1979-03-03 15:46:26.190 ,4,1,9.,12.0,13.,12.0,0.,12.0,0.,12.0
1979-03-03 15:46:38.190 ,5,1,11.,12.0,15.,12.0,0.,12.0,0.,12.0
1979-03-03 15:46:50.190 ,5,1,15.,12.0,10.,12.0,0.,12.0,0.,12.0
1979-03-03 15:47:02.190 ,6,1,19.,12.0,21.,12.0,0.,12.0,0.,12.0
1979-03-03 15:47:14.190 ,6,1,18.,12.0,7.,12.0,0.,12.0,0.,12.0
1979-03-03 15:47:26.190 ,7,1,16.,12.0,15.,12.0,0.,12.0,1.,12.0
1979-03-03 15:47:38.190 ,7,1,2.,12.0,6.,12.0,0.,12.0,0.,12.0
1979-03-03 15:47:50.190 ,7,1,0.,12.0,5.,12.0,0.,12.0,0.,12.0
1979-03-03 15:48:02.190 ,7,1,0.,12.0,5.,12.0,0.,12.0,0.,12.0
1979-03-03 15:48:14.190 ,6,1,0.,12.0,14.,12.0,0.,12.0,0.,12.0
1979-03-03 15:48:26.190 ,6,1,4.,12.0,13.,12.0,0.,12.0,1.,12.0
1979-03-03 15:48:38.190 ,5,1,14.,12.0,7.,12.0,0.,12.0,0.,12.0
1979-03-03 15:48:50.190 ,5,1,10.,12.0,12.,12.0,0.,12.0,0.,12.0
1979-03-03 15:49:02.190 ,4,1,21.,12.0,17.,12.0,0.,12.0,0.,12.0
1979-03-03 15:49:14.190 ,4,1,19.,12.0,21.,12.0,0.,12.0,0.,12.0
1979-03-03 15:49:26.190 ,3,1,20.,12.0,31.,12.0,0.,12.0,0.,12.0
1979-03-03 15:49:38.190 ,3,1,9.,12.0,21.,12.0,0.,12.0,0.,12.0
1979-03-03 15:49:50.190 ,2,1,16.,12.0,12.,12.0,0.,12.0,0.,12.0
1979-03-03 15:50:02.190 ,2,1,7.,12.0,13.,12.0,0.,12.0,0.,12.0
1979-03-03 15:50:14.190 ,1,1,6.,12.0,8.,12.0,0.,12.0,0.,12.0
1979-03-03 15:50:26.190 ,1,1,8.,12.0,10.,12.0,0.,12.0,0.,12.0
1979-03-03 15:50:38.190 ,0,1,9.,12.0,11.,12.0,0.,12.0,0.,12.0
1979-03-03 15:50:50.190 ,0,1,7.,12.0,8.,12.0,0.,12.0,1.,12.0
1979-03-03 15:51:02.190 ,0,1,13.,12.0,13.,12.0,0.,12.0,0.,12.0
1979-03-03 15:51:14.190 ,0,1,7.,12.0,9.,12.0,0.,12.0,0.,12.0
1979-03-03 15:51:26.190 ,1,1,4.,12.0,10.,12.0,0.,12.0,0.,12.0
1979-03-03 15:51:38.190 ,1,1,14.,12.0,8.,12.0,0.,12.0,0.,12.0
1979-03-03 15:51:50.190 ,2,1,7.,12.0,15.,12.0,0.,12.0,0.,12.0
1979-03-03 15:52:02.190 ,2,1,6.,12.0,10.,12.0,0.,12.0,0.,12.0
1979-03-03 15:52:14.190 ,3,1,2.,12.0,6.,12.0,0.,12.0,0.,12.0
1979-03-03 15:52:26.190 ,3,1,6.,12.0,8.,12.0,0.,12.0,0.,12.0
1979-03-03 15:52:38.190 ,4,1,9.,12.0,8.,12.0,0.,12.0,1.,12.0
1979-03-03 15:52:50.190 ,4,1,13.,12.0,15.,12.0,0.,12.0,0.,12.0
1979-03-03 15:53:02.190 ,5,1,21.,12.0,13.,12.0,0.,12.0,0.,12.0
1979-03-03 15:53:14.190 ,5,1,24.,12.0,17.,12.0,0.,12.0,1.,12.0
1979-03-03 15:53:26.190 ,6,1,22.,12.0,23.,12.0,0.,12.0,0.,12.0
1979-03-03 15:53:38.190 ,6,1,17.,12.0,16.,12.0,0.,12.0,0.,12.0
1979-03-03 15:53:50.190 ,7,1,15.,12.0,11.,12.0,0.,12.0,0.,12.0
1979-03-03 15:54:02.190 ,7,1,10.,12.0,9.,12.0,0.,12.0,0.,12.0
1979-03-03 15:54:14.190 ,7,1,0.,12.0,6.,12.0,0.,12.0,1.,12.0
1979-03-03 15:54:26.190 ,7,1,0.,12.0,12.,12.0,0.,12.0,1.,12.0
1979-03-03 15:54:38.190 ,6,1,0.,12.0,11.,12.0,0.,12.0,1.,12.0
1979-03-03 15:54:50.190 ,6,1,15.,12.0,8.,12.0,0.,12.0,1.,12.0
1979-03-03 15:55:02.190 ,5,1,15.,12.0,7.,12.0,0.,12.0,0.,12.0
1979-03-03 15:55:14.190 ,5,1,31.,12.0,15.,12.0,0.,12.0,0.,12.0
1979-03-03 15:55:26.190 ,4,1,18.,12.0,20.,12.0,0.,12.0,1.,12.0
1979-03-03 15:55:38.190 ,4,1,15.,12.0,12.,12.0,0.,12.0,0.,12.0
1979-03-03 15:55:50.190 ,3,1,21.,12.0,11.,12.0,0.,12.0,0.,12.0
1979-03-03 15:56:02.190 ,3,1,6.,12.0,8.,12.0,0.,12.0,0.,12.0
1979-03-03 15:56:14.190 ,2,1,6.,12.0,7.,12.0,0.,12.0,1.,12.0
1979-03-03 15:56:26.190 ,2,1,4.,12.0,4.,12.0,0.,12.0,0.,12.0
1979-03-03 15:56:38.190 ,1,1,5.,12.0,7.,12.0,0.,12.0,0.,12.0
1979-03-03 15:56:50.190 ,1,1,9.,12.0,7.,12.0,0.,12.0,0.,12.0
1979-03-03 15:57:02.190 ,0,1,8.,12.0,8.,12.0,0.,12.0,0.,12.0
1979-03-03 15:57:14.190 ,0,1,6.,12.0,7.,12.0,0.,12.0,0.,12.0
1979-03-03 15:57:26.190 ,0,1,5.,12.0,11.,12.0,0.,12.0,0.,12.0
1979-03-03 15:57:38.190 ,0,1,4.,12.0,7.,12.0,0.,12.0,1.,12.0
1979-03-03 15:57:50.190 ,1,1,6.,12.0,9.,12.0,0.,12.0,1.,12.0
1979-03-03 15:58:02.190 ,1,1,2.,12.0,7.,12.0,0.,12.0,1.,12.0
1979-03-03 15:58:14.190 ,2,1,3.,12.0,7.,12.0,0.,12.0,0.,12.0
1979-03-03 15:58:26.190 ,2,1,4.,12.0,1.,12.0,0.,12.0,0.,12.0
1979-03-03 15:58:38.190 ,3,1,3.,12.0,3.,12.0,0.,12.0,0.,12.0
1979-03-03 15:58:50.190 ,3,1,5.,12.0,2.,12.0,0.,12.0,0.,12.0
1979-03-03 15:59:02.190 ,4,1,6.,12.0,6.,12.0,0.,12.0,0.,12.0
1979-03-03 15:59:14.190 ,4,1,10.,12.0,9.,12.0,0.,12.0,0.,12.0
1979-03-03 15:59:26.190 ,5,1,11.,12.0,11.,12.0,0.,12.0,0.,12.0
1979-03-03 15:59:38.190 ,5,1,14.,12.0,6.,12.0,0.,12.0,0.,12.0
1979-03-03 15:59:50.190 ,6,1,14.,12.0,5.,12.0,0.,12.0,0.,12.0
1979-03-03 16:00:02.190 ,6,1,21.,12.0,12.,12.0,0.,12.0,0.,12.0
1979-03-03 16:00:14.190 ,7,1,12.,12.0,18.,12.0,0.,12.0,2.,12.0
1979-03-03 16:00:26.190 ,7,1,9.,12.0,3.,12.0,0.,12.0,0.,12.0
1979-03-03 16:00:38.190 ,7,1,0.,12.0,10.,12.0,0.,12.0,0.,12.0
1979-03-03 16:00:50.190 ,7,1,0.,12.0,14.,12.0,0.,12.0,0.,12.0
1979-03-03 16:01:02.190 ,6,1,0.,12.0,7.,12.0,0.,12.0,0.,12.0
1979-03-03 16:01:14.190 ,6,1,9.,12.0,15.,12.0,0.,12.0,0.,12.0
1979-03-03 16:01:26.190 ,5,1,15.,12.0,14.,12.0,0.,12.0,0.,12.0
1979-03-03 16:01:38.190 ,5,1,12.,12.0,10.,12.0,0.,12.0,0.,12.0
1979-03-03 16:01:50.190 ,4,1,13.,12.0,12.,12.0,0.,12.0,1.,12.0
1979-03-03 16:02:02.190 ,4,1,9.,12.0,7.,12.0,0.,12.0,0.,12.0
1979-03-03 16:02:14.190 ,3,1,11.,12.0,10.,12.0,0.,12.0,0.,12.0
1979-03-03 16:02:26.190 ,3,1,6.,12.0,7.,12.0,0.,12.0,0.,12.0
1979-03-03 16:02:38.190 ,2,1,5.,12.0,9.,12.0,0.,12.0,0.,12.0
1979-03-03 16:02:50.190 ,2,1,4.,12.0,3.,12.0,0.,12.0,0.,12.0
1979-03-03 16:03:02.190 ,1,1,2.,12.0,6.,12.0,0.,12.0,0.,12.0
1979-03-03 16:03:14.190 ,1,1,5.,12.0,9.,12.0,0.,12.0,0.,12.0
1979-03-03 16:03:26.190 ,0,1,7.,12.0,10.,12.0,0.,12.0,0.,12.0
1979-03-03 16:03:38.190 ,0,1,9.,12.0,13.,12.0,0.,12.0,0.,12.0
1979-03-03 16:03:50.190 ,0,1,6.,12.0,17.,12.0,0.,12.0,0.,12.0
1979-03-03 16:04:02.190 ,0,1,12.,12.0,12.,12.0,0.,12.0,0.,12.0
1979-03-03 16:04:14.190 ,1,1,11.,12.0,14.,12.0,0.,12.0,0.,12.0
1979-03-03 16:04:26.190 ,1,1,9.,12.0,9.,12.0,0.,12.0,0.,12.0
1979-03-03 16:04:38.190 ,2,1,4.,12.0,14.,12.0,0.,12.0,0.,12.0
1979-03-03 16:04:50.190 ,2,1,4.,12.0,11.,12.0,0.,12.0,0.,12.0
1979-03-03 16:05:02.190 ,0,0,3.,12.0,8.,12.0,0.,12.0,1.,12.0
1979-03-03 16:05:14.190 ,0,0,5.,12.0,7.,12.0,0.,12.0,0.,12.0
1979-03-03 16:05:53.190 ,0,0,,0,,0,,0,,0
1979-03-03 16:06:05.190 ,0,0,31.,12.0,20.,12.0,0.,12.0,0.,12.0
1979-03-03 16:06:14.190 ,6,1,30.,12.0,21.,12.0,0.,12.0,1.,12.0
1979-03-03 16:06:26.190 ,6,1,19.,12.0,21.,12.0,0.,12.0,0.,12.0
1979-03-03 16:06:38.190 ,7,1,23.,12.0,17.,12.0,0.,12.0,0.,12.0
1979-03-03 16:06:50.190 ,7,1,6.,12.0,17.,12.0,0.,12.0,1.,12.0
1979-03-03 16:07:02.190 ,7,1,0.,12.0,7.,12.0,0.,12.0,1.,12.0
1979-03-03 16:07:14.190 ,7,1,0.,12.0,10.,12.0,0.,12.0,1.,12.0
1979-03-03 16:07:26.190 ,6,1,0.,12.0,5.,12.0,0.,12.0,0.,12.0
1979-03-03 16:07:38.190 ,6,1,11.,12.0,11.,12.0,0.,12.0,0.,12.0
1979-03-03 16:07:50.190 ,5,1,32.,12.0,14.,12.0,0.,12.0,0.,12.0
1979-03-03 16:08:02.190 ,5,1,18.,12.0,12.,12.0,0.,12.0,0.,12.0
1979-03-03 16:08:14.190 ,4,1,17.,12.0,13.,12.0,0.,12.0,0.,12.0
1979-03-03 16:08:26.190 ,4,1,12.,12.0,11.,12.0,0.,12.0,0.,12.0
1979-03-03 16:08:38.190 ,3,1,13.,12.0,13.,12.0,0.,12.0,1.,12.0
1979-03-03 16:08:50.190 ,3,1,7.,12.0,13.,12.0,0.,12.0,0.,12.0
1979-03-03 16:09:02.190 ,2,1,5.,12.0,9.,12.0,0.,12.0,0.,12.0
1979-03-03 16:09:14.190 ,2,1,5.,12.0,8.,12.0,0.,12.0,0.,12.0
1979-03-03 16:09:26.190 ,1,1,2.,12.0,11.,12.0,0.,12.0,0.,12.0
1979-03-03 16:09:38.190 ,1,1,6.,12.0,6.,12.0,0.,12.0,0.,12.0
1979-03-03 16:09:50.190 ,0,1,3.,12.0,11.,12.0,0.,12.0,1.,12.0
1979-03-03 16:10:02.190 ,0,1,10.,12.0,6.,12.0,0.,12.0,0.,12.0
1979-03-03 16:10:14.190 ,0,1,7.,12.0,18.,12.0,0.,12.0,0.,12.0
1979-03-03 16:10:26.190 ,0,1,7.,12.0,11.,12.0,0.,12.0,0.,12.0
1979-03-03 16:10:38.190 ,1,1,6.,12.0,12.,12.0,0.,12.0,1.,12.0
1979-03-03 16:10:50.190 ,1,1,11.,12.0,13.,12.0,0.,12.0,1.,12.0
1979-03-03 16:11:02.190 ,2,1,5.,12.0,15.,12.0,0.,12.0,0.,12.0
1979-03-03 16:11:14.190 ,2,1,7.,12.0,12.,12.0,0.,12.0,0.,12.0
1979-03-03 16:11:26.190 ,3,1,9.,12.0,10.,12.0,0.,12.0,0.,12.0
1979-03-03 16:11:38.190 ,3,1,9.,12.0,9.,12.0,0.,12.0,0.,12.0
1979-03-03 16:11:50.190 ,4,1,8.,12.0,8.,12.0,0.,12.0,0.,12.0
1979-03-03 16:12:02.190 ,4,1,10.,12.0,9.,12.0,0.,12.0,0.,12.0
1979-03-03 16:12:14.190 ,5,1,8.,12.0,12.,12.0,0.,12.0,0.,12.0
1979-03-03 16:12:26.190 ,5,1,11.,12.0,21.,12.0,0.,12.0,1.,12.0
1979-03-03 16:12:38.190 ,6,1,13.,12.0,13.,12.0,0.,12.0,0.,12.0
1979-03-03 16:12:50.190 ,6,1,16.,12.0,11.,12.0,0.,12.0,0.,12.0
1979-03-03 16:13:02.190 ,7,1,12.,12.0,17.,12.0,0.,12.0,0.,12.0
1979-03-03 16:13:14.190 ,7,1,4.,12.0,10.,12.0,0.,12.0,0.,12.0
1979-03-03 16:13:26.190 ,7,1,0.,12.0,10.,12.0,0.,12.0,0.,12.0
1979-03-03 16:13:38.190 ,7,1,0.,12.0,13.,12.0,0.,12.0,1.,12.0
1979-03-03 16:13:50.190 ,6,1,0.,12.0,12.,12.0,0.,12.0,1.,12.0
1979-03-03 16:14:02.190 ,6,1,4.,12.0,12.,12.0,0.,12.0,0.,12.0
1979-03-03 16:14:14.190 ,5,1,8.,12.0,18.,12.0,0.,12.0,1.,12.0
1979-03-03 16:14:26.190 ,5,1,15.,12.0,7.,12.0,0.,12.0,0.,12.0
1979-03-03 16:14:38.190 ,4,1,27.,12.0,14.,12.0,0.,12.0,0.,12.0
1979-03-03 16:14:50.190 ,4,1,9.,12.0,16.,12.0,0.,12.0,0.,12.0
1979-03-03 16:15:02.190 ,3,1,19.,12.0,14.,12.0,0.,12.0,0.,12.0
1979-03-03 16:15:14.190 ,3,1,4.,12.0,10.,12.0,0.,12.0,0.,12.0
1979-03-03 16:15:26.190 ,2,1,6.,12.0,6.,12.0,0.,12.0,0.,12.0
1979-03-03 16:15:38.190 ,2,1,7.,12.0,6.,12.0,0.,12.0,0.,12.0
1979-03-03 16:15:50.190 ,1,1,4.,12.0,12.,12.0,0.,12.0,0.,12.0
1979-03-03 16:16:02.190 ,1,1,5.,12.0,10.,12.0,0.,12.0,0.,12.0
1979-03-03 16:16:14.190 ,0,0,5.,12.0,5.,12.0,0.,12.0,0.,12.0
1979-03-03 16:16:26.190 ,0,0,,0,,0,,0,,0
1979-03-03 16:17:08.190 ,0,0,,0,,0,,0,,0
1979-03-03 16:17:20.190 ,0,0,5.,12.0,11.,12.0,0.,12.0,2.,12.0
1979-03-03 16:17:26.190 ,2,1,3.,12.0,9.,12.0,0.,12.0,0.,12.0
1979-03-03 16:17:38.190 ,2,1,2.,12.0,7.,12.0,0.,12.0,0.,12.0
1979-03-03 16:17:50.190 ,3,1,6.,12.0,6.,12.0,0.,12.0,0.,12.0
1979-03-03 16:18:02.190 ,3,1,8.,12.0,11.,12.0,0.,12.0,0.,12.0
1979-03-03 16:18:14.190 ,4,1,,0,,0,,0,,0
1979-03-03 16:18:26.190 ,4,1,7.,12.0,9.,12.0,0.,12.0,0.,12.0
1979-03-03 16:18:38.190 ,5,1,13.,12.0,12.,12.0,0.,12.0,0.,12.0
1979-03-03 16:18:50.190 ,5,1,15.,12.0,9.,12.0,0.,12.0,1.,12.0
1979-03-03 16:19:02.190 ,6,1,19.,12.0,15.,12.0,0.,12.0,0.,12.0
1979-03-03 16:19:14.190 ,6,1,16.,12.0,11.,12.0,0.,12.0,1.,12.0
1979-03-03 16:19:26.190 ,7,1,16.,12.0,9.,12.0,0.,12.0,0.,12.0
1979-03-03 16:19:38.190 ,7,1,8.,12.0,9.,12.0,0.,12.0,0.,12.0
1979-03-03 16:19:50.190 ,7,1,0.,12.0,10.,12.0,0.,12.0,0.,12.0
1979-03-03 16:20:02.190 ,7,1,0.,12.0,16.,12.0,0.,12.0,0.,12.0
1979-03-03 16:20:14.190 ,6,1,0.,12.0,11.,12.0,0.,12.0,0.,12.0
1979-03-03 16:20:26.190 ,6,1,11.,12.0,19.,12.0,0.,12.0,0.,12.0
1979-03-03 16:20:38.190 ,5,1,15.,12.0,7.,12.0,0.,12.0,0.,12.0
1979-03-03 16:20:50.190 ,5,1,22.,12.0,23.,12.0,0.,12.0,0.,12.0
1979-03-03 16:21:02.190 ,4,1,9.,12.0,13.,12.0,0.,12.0,0.,12.0
1979-03-03 16:21:14.190 ,4,1,8.,12.0,9.,12.0,0.,12.0,0.,12.0